Regional Weather Roundup
Issued by NWS

Home | Current Version | Previous Version | Text Only | Print | Product List | Glossary Off
Versions: 1 2 3 4 5 6 7 8 9 10 11 12 13 14 15 16 17 18 19 20 21 22 23 24 25 26 27 28 29 30 31 32 33 34 35 36 37 38 39 40 41 42 43 44 45 46 47 48 49 50

000
ASUS45 KPSR 271510
RWRAZ

ARIZONA HOURLY REGIONAL WEATHER ROUNDUP
NATIONAL WEATHER SERVICE PHOENIX AZ
800 AM MST THU JUL 27 2017

NOTE: FAIR INDICATES FEW OR NO CLOUDS BELOW 12,000 FEET WITH NO
SIGNIFICANT WEATHER AND/OR OBSTRUCTIONS TO VISIBILITY.

AZZ001>003-036-271600-
NORTHWEST ARIZONA

CITY           SKY/WX    TMP DP  RH WIND       PRES   REMARKS
BULLHEAD CITY  MOSUNNY   90  59  35 CALM      29.89
KINGMAN        SUNNY     83  59  44 CALM      30.10S
$$

AZZ004>008-015-016-018-271600-
NORTH CENTRAL ARIZONA

CITY           SKY/WX    TMP DP  RH WIND       PRES   REMARKS
GRAND CANYON   SUNNY     72  59  63 CALM      30.35S
WILLIAMS       SUNNY     72  57  60 CALM      30.36S
PRESCOTT       MOSUNNY   73  59  61 CALM      30.23R
FLAGSTAFF      CLOUDY    68  59  73 CALM      30.37R
PAYSON         PTSUNNY   73  61  64 CALM      30.24S
PAGE           SUNNY     81  58  45 N3        30.15S
$$

AZZ009>014-017-271600-
NORTHEAST ARIZONA

CITY           SKY/WX    TMP DP  RH WIND       PRES   REMARKS
WINSLOW        CLOUDY    77  57  50 W5        30.21R
SAINT JOHNS    SUNNY     75  58  55 CALM      30.26R
WINDOW ROCK    SUNNY     72  54  53 CALM      30.34S
SHOW LOW       SUNNY     68  55  64 CALM      30.33R
$$

AZZ540-542>544-546-548-271600-
GREATER PHOENIX AREA

CITY           SKY/WX    TMP DP  RH WIND       PRES   REMARKS
PHOENIX        MOSUNNY   91  58  32 NW6       29.89R
BUCKEYE        SUNNY     90  59  35 W5        29.91S
GLENDALE       MOSUNNY   91  57  31 S12       29.91R
LUKE AFB       MOSUNNY   92  58  32 SW3       29.89R
DEER VALLEY    SUNNY     91  60  35 CALM      29.91S
SCOTTSDALE     SUNNY     91  56  30 CALM      29.94R
MESA-FALCON    MOSUNNY   90  61  37 W7        29.93R
MESA-GATEWAY   MOSUNNY   90  64  43 E6        29.93R
CHANDLER       SUNNY     91  63  38 E5        29.91R
$$

AZZ539-553-271600-
SOUTHWEST MARICOPA COUNTY AND PINAL COUNTY

CITY           SKY/WX    TMP DP  RH WIND       PRES   REMARKS
CASA GRANDE    MOSUNNY   91  60  35 SW6       29.94R
GILA BEND      MOSUNNY   92  61  35 CALM      29.89R
$$

AZZ503-504-507>509-271600-
SOUTHEAST ARIZONA

CITY           SKY/WX    TMP DP  RH WIND       PRES   REMARKS
TUCSON         MOSUNNY   82  69  64 SW5       30.04S
DAVIS-MONTHAN  MOSUNNY   82  69  64 S3        30.03S
RYAN FIELD     SUNNY     82  70  65 E5        30.04R
NOGALES        MOSUNNY   77  65  66 CALM      30.13R
SIERRA VISTA   PTSUNNY   78  60  54 W6        30.19R
DOUGLAS        PTSUNNY   76  64  66 SW5       30.14R
SAFFORD        SUNNY     81  65  58 W5        30.04R
$$

AZZ532-271600-
SOUTHWEST ARIZONA

CITY           SKY/WX    TMP DP  RH WIND       PRES   REMARKS
YUMA           MOSUNNY   91  50  24 CALM      29.85R
$$

CAZ041-043-047-048-061-525>527-560>570-271600-
SOUTHERN CALIFORNIA

CITY           SKY/WX    TMP DP  RH WIND       PRES   REMARKS
DOWNTOWN L.A.  SUNNY     72  63  73 CALM      29.96S
L.A. AIRPORT   PTSUNNY   69  65  86 W5        29.97S
SAN DIEGO      CLOUDY    71  65  81 N6        29.98R
BURBANK        SUNNY     70  60  70 CALM      29.97S
ONTARIO        PTSUNNY   72  62  71 CALM      29.98S
RIVERSIDE      SUNNY     71  63  75 CALM      29.98S
PALM SPRINGS   SUNNY     91  63  39 CALM      29.88S
EL CENTRO NAS  SUNNY     89  56  32 S3        29.85S
IMPERIAL       SUNNY     91  56  30 SW5       29.82S
BLYTHE         SUNNY     93  49  22 N6        29.86S
NEEDLES        SUNNY     94  55  26 NE5       29.90S
$$

NVZ020-UTZ003-271600-
SOUTHERN NEVADA-UTAH

CITY           SKY/WX    TMP DP  RH WIND       PRES   REMARKS
LAS VEGAS      MOSUNNY   88  63  43 E6        30.01R
SALT LAKE CITY MOSUNNY   74  60  61 S7        30.19R
$$

NMZ009-TXZ055-271600-
NEW MEXICO-WEST TEXAS

CITY           SKY/WX    TMP DP  RH WIND       PRES   REMARKS
ALBUQUERQUE    CLOUDY    74  60  61 CALM      30.28R
EL PASO        PTSUNNY   81  65  58 CALM      30.11R
$$


........................KEY........................
SKY/WX - SKY CONDITION/WEATHER
TMP    - TEMPERATURE IN FAHRENHEIT
DP     - DEW POINT IN FAHRENHEIT
RH     - RELATIVE HUMIDITY IN PERCENT
WIND   - DIRECTION AND SPEED IN MILES PER HOUR (MPH)
VRB    - VARIABLE WIND DIRECTION
PRES   - MEAN SEA LEVEL PRESSURE IN INCHES OF MERCURY
         F - FALLING PRESSURE   R - RISING PRESSURE
         S - STEADY PRESSURE
VSB    - VISIBILITY IN MILES
HX     - HEAT INDEX IN FAHRENHEIT
WCI    - WIND CHILL INDEX IN FAHRENHEIT
TC     - TEMPERATURE IN CELSIUS WHICH IS ALSO KNOWN AS
         TEMPERATURE IN CENTIGRADE
AFB    - AIR FORCE BASE
         LUKE AFB IS LUKE AIR FORCE BASE
         DAVIS-MONTHAN IS DAVIS-MONTHAN AIR FORCE BASE
NAS    - NAVAL AIR STATION
         EL CENTRO NAS IS EL CENTRO NAVAL AIR STATION
N/A    - NOT AVAILABLE




USA.gov is the U.S. government's official web portal to all federal, state and local government web resources and services.